www.pogodaiklimat.ru

Погода и климат >> Архив погоды >> Россия >> Хабаровский край >> Кур


ПОГОДА в Куре

  • Прогноз погоды в Куре
  • Монитор погоды в Куре

АРХИВ ПОГОДЫ в Куре

Время (UTC), дата Ветер
(напр.,м/с)
 
Видим.   Явления Облачность Т
(С)
Тd
(С)
f
(%)
Тe
(С)
Тes
(С)
Комфортность P
(гПа)
Po
(гПа)
Тmin
(С)
Tmax
(С)
R
(мм)
R24
(мм)
S
(см)
03 13.07 СВ 3 50 км 10/6 600 м
[Cb cap Ac As]
+23.5 +15.6 61 +27 +28 душно 1005.1 973.2
06 13.07 СВ 3 50 км 10/10 600 м
[Sc]
+24.6 +14.5 53 +27 +27 жарко 1004.1 972.3
09 13.07 СВ 2 50 км 10/10 600 м
[Sc diur, vesp]
+22.5 +13.7 57 +26 +26 жарко 1004.6 972.6 +25.2
12 13.07 СВ 2 50 км 10/10 600 м
[Sc]
+19.3 +14.3 73 +21 +21 комфорт 1006.5 974.0
15 13.07 СВ 2 50 км 10/10 600 м
[Sc]
+18.3 +14.4 78 +19 +19 1007.1 974.5
18 13.07 СВ 2 50 км 6/6 600 м
[Sc]
+17.4 +14.5 83 +18 +18 1007.1 974.4
21 13.07 СВ 2 50 км 8/0
[Ac trans Ci fib]
+17.9 +14.9 83 +18 +20 1007.4 974.8 +16.8
00 14.07 ЮЗ 2 50 км 8/0
[Ac cast Ci]
+22.3 +15.5 65 +26 +31 жарко 1006.8 974.7
03 14.07 ЮЗ 3 50 км 8/6 600 м
[Sc diur, vesp Ac trans]
+24.1 +15.9 60 +27 +31 жарко 1006.5 974.6
06 14.07 ЮЗ 1 50 км 10/6 600 м
[Sc diur, vesp Ac trans]
+25.4 +14.9 52 +28 +30 жарко 1006.0 974.2
09 14.07 ЮЗ 1 50 км 8/3 600 м
[Cb cap Ac trans Ci fib]
+22.5 +15.8 66 +27 +28 душно 1006.7 974.6 +25.4
12 14.07 штиль 0 50 км 4/0
[Ac cuf Ci]
+17.8 +17.3 97 +18 +18 1008.8 976.2
15 14.07 штиль 0 50 км 6/0
[Ac cuf Ci]
+15.5 +15.5 100 +15 +15 1010.2 977.2
18 14.07 штиль 0 50 км 8/0
[Ac trans]
+15.5 +15.5 100 +15 +15 1010.2 977.2
21 14.07 СВ 1 50 км 10/0
[Ac und]
+16.0 +16.0 100 +17 +17 1010.8 977.9 +15.0
00 15.07 З 2 50 км 8/8 600 м
[Sc]
+22.0 +15.7 67 +26 +28 душно 1010.4 978.2
03 15.07 Ю 3 50 км 6/6 600 м
[Cu med, cong]
+26.0 +15.5 52 +29 +35 душно 1009.2 977.4
06 15.07 ЮЗ 3 50 км 8/5 600 м
[Cu med, cong Ac trans]
+26.4 +14.3 47 +29 +32 жарко 1008.6 976.9
09 15.07 ЮЗ 2 50 км 6/6 600 м
[Sc diur, vesp]
+25.2 +16.0 57 +29 +29 душно 1008.5 976.6 +26.6
12 15.07 штиль 0 50 км ?/? +19.7 +18.4 92 +22 +22 комфорт 1010.9 978.4
15 15.07 штиль 0 50 км 4/0
[Ac trans]
+16.5 +16.5 100 +16 +16 1011.6 978.7
18 15.07 штиль 0 50 км 4/0
[Ac trans]
+15.7 +15.7 100 +15 +15 1011.8 978.8
21 15.07 СВ 1 50 км 3/0
[Ac trans]
+16.3 +16.3 100 +17 +19 1011.8 978.9 +14.5
00 16.07 З 2 50 км 6/3 600 м
[Cu med, cong Ci]
+23.7 +15.9 62 +27 +34 жарко 1010.8 978.7
03 16.07 ЮЗ 3 50 км 8/5 600 м
[Cu med, cong Ac trans]
+24.1 +16.6 63 +28 +32 душно 1009.8 977.8
06 16.07 Ю 3 50 км 8/4 600 м
[Cu med, cong Ac trans Ci fib]
+27.5 +15.6 48 +30 +34 жарко 1007.8 976.2
09 16.07 ЮЗ 2 50 км 6/3 600 м
[Cu med, cong Ci fib]
+26.3 +14.6 49 +29 +30 жарко 1007.5 975.8 +27.9
12 16.07 З 1 50 км 3/0
[Ci]
+19.9 +16.2 79 +23 +23 комфорт 1009.7 977.3
15 16.07 штиль 0 50 км 4/0
[Ac trans]
+16.1 +16.1 100 +16 +16 1010.3 977.4
18 16.07 штиль 0 50 км 4/0
[Ac trans]
+14.9 +14.9 100 +15 +15 1010.1 977.1
21 16.07 штиль 0 500 м туман 4/0
[Ac trans]
+16.2 +16.2 100 +16 +18 1009.6 976.7 +14.8
00 17.07 З 2 50 км {туман} 8/0
[Ac cast Ci]
+22.5 +15.6 65 +26 +34 жарко 1008.3 976.2
03 17.07 СЗ 1 50 км {ливн. осадки} 10/10 600 м
[Cb cap]
+24.0 +15.8 60 +27 +27 жарко 1006.6 974.7
06 17.07 ЮЗ 1 50 км в посл. час ливневой дождь 8/8 600 м
[Cb cap]
+24.0 +18.9 73 +29 +31 душно 1005.1 973.3
09 17.07 ЮЗ 2 50 км {ливн. осадки} 8/6 600 м
[Sc diur, vesp Ac cuf]
+22.6 +16.7 69 +27 +28 душно 1004.1 972.1 +24.7 3
12 17.07 ЮЗ 1 50 км {ливн. осадки} 10/10 600 м
[Sc]
+19.5 +16.5 83 +23 +23 комфорт 1005.5 973.1
15 17.07 штиль 0 50 км 10/10 600 м
[Sc]
+17.9 +17.9 100 +18 +18 1004.8 972.3
18 17.07 штиль 0 4000 м ливневой дождь 10/10 600 м
[Cb cap]
+17.5 +17.5 100 +17 +17 1003.4 970.9
21 17.07 штиль 0 500 м туман {ливн. осадки} 10/0 600 м
[As op]
+17.8 +17.8 100 +18 +18 1003.2 970.8 +17.4 14
00 18.07 СВ 1 10 км в посл. час туман {ливн. осадки} 10/10 300 м
[St]
+20.5 +19.1 92 +26 +26 душно 1002.4 970.3
03 18.07 ЮЗ 1 50 км 8/6 600 м
[Cb cap Ac trans]
+25.3 +17.2 61 +29 +35 душно 1000.7 969.1
06 18.07 З 3 50 км 6/6 600 м
[Cb cap]
+25.6 +16.8 58 +29 +33 душно 999.6 968.1
09 18.07 штиль 0 10 км слаб. ливневой дождь 8/8 600 м
[Cb cap]
+21.0 +20.2 95 +26 +26 душно 1000.5 968.5 +26.5 0.5
12 18.07 штиль 0 50 км {ливн. осадки} 8/8 600 м
[Cb cap]
+19.0 +19.0 100 +21 +21 комфорт 1001.9 969.6
15 18.07 штиль 0 50 км 6/6 600 м
[Sc diur, vesp]
+18.5 +18.5 100 +19 +19 1002.5 970.2
18 18.07 штиль 0 50 км 6/6 600 м
[Sc]
+18.3 +18.3 100 +19 +19 1002.6 970.3
21 18.07 СВ 1 50 км 10/10 300 м
[St]
+18.9 +18.9 100 +22 +22 комфорт 1003.4 971.1 +18.3
00 19.07 В 1 50 км 8/8 600 м
[Sc]
+23.1 +18.3 74 +29 +31 очень
душно
1003.6 971.7
03 19.07 штиль 0 50 км 6/6 600 м
[Cb cap]
+26.5 +17.4 57 +31 +40 душно 1002.3 970.8
06 19.07 ЮЗ 2 50 км гроза без осадков 10/10 600 м
[Cb cap]
+21.5 +16.3 72 +25 +25 комфорт 1004.6 972.5
09 19.07 СЗ 1 50 км {гроза, ливн. осадки} 8/6 600 м
[Sc diur, vesp Ci]
+22.7 +18.4 77 +28 +29 душно 1004.7 972.8 +27.6 0.5
12 19.07 штиль 0 50 км {гроза, ливн. осадки} 4/4 600 м
[Sc diur, vesp]
+18.4 +18.4 100 +19 +19 1007.1 974.6
15 19.07 штиль 0 50 км 6/0
[Ci fib]
+16.0 +16.0 100 +16 +16 1008.1 975.3
18 19.07 С 1 50 км 4/0
[Ci fib]
+16.4 +16.4 100 +17 +17 1009.0 976.2
21 19.07 С 1 50 км 4/0
[Ci fib]
+17.2 +17.2 100 +18 +20 1010.0 977.2 +15.5
00 20.07 СВ 1 50 км 6/3 600 м
[Cu med, cong Ci fib]
+23.2 +17.1 69 +28 +36 душно 1009.7 977.6

 

Местоположение метеостанции Кур (Хабаровский край, Россия): широта 49.93 долгота 134.60 высота над уровнем моря 283 м.

В архиве по умолчанию представлена погода в Куре за последнюю неделю. Архивные данные за месяц целиком и за предыдущие месяцы, начиная с января 2011 года, Вы можете получить, выбрав интересующий диапазон дат из раскрывающегося списка и нажав кнопку "Ввод!".


*Определитесь, кто Вы:
робот инопланетянин человек

Внимание! Время в таблицах - всемирное. Для получения местного времени необходимо прибавить поправку, которая равна 10 ч.

Смотрите также архив погоды в соседних городах и на ближайших метеорологических станциях:

Погода в Верховье Урми (Хабаровский край, Россия) (80 км)
Погода в Литовко (Хабаровский край, Россия) (86 км)
Погода в Урми (Хабаровский край, Россия) (117 км)
Погода в Троицком (Хабаровский край, Россия) (151 км)
Погода в Елабуге (Хабаровский край, Россия) (151 км)
Погода в Амурске (Хабаровский край, Россия) (158 км)
Погода на Хабаровск Мосту (Хабаровский край, Россия) (159 км)
Погода в Смидовиче (Еврейская автономная область, Россия) (159 км)
Погода в Хабаровске Агромет (Хабаровский край, Россия) (161 км)
Погода в Хабаровске (Хабаровский край, Россия) (161 км)

Пояснения к столбцам:

Ветер - указаны скорость ветра в м/с - средняя за 10 мин, порывы в срок и между сроками (в фигурных скобках) и направление, откуда дует ветер: С - северный, СВ - северо-восточный, В - восточный, ЮВ - юго-восточный, Ю - южный, ЮЗ - юго-западный, З - западный, СЗ - северо-западный.
Видимость - горизонтальная дальность видимости в метрах или километрах. При видимости от 1 до 10 км при отсутствии осадков обычно наблюдается дымка, при ухудшении видимости до 1 км и менее - туман. В сухую погоду видимость может ухудшаться дымом, пылью или мглою.
Явления - указаны атмосферные явления, наблюдавшиеся в срок или в последний час перед сроком; фигурными скобками обозначены явления, наблюдавшиеся между сроками (за 1-3 часа до срока); квадратными скобками обозначены град или гололедные отложения с указанием их диаметра в мм.
Облачность - указаны через наклонную черту общая и нижняя облачность в баллах и высота нижней границы облаков в метрах; квадратными скобками обозначены формы облаков: Ci - перистые, Cs - перисто-слоистые, Cc - перисто-кучевые, Ac - высококучевые, As - высокослоистые, Sc - слоисто-кучевые, Ns - слоисто-дождевые, Cu - кучевые, Cb - кучево-дождевые. Подробнее классификацию облаков см. в Атласе облаков (PDF).
T - Температура воздуха - температура, измеренная на высоте 2 м над землей.
Td - Температура точки росы - температура, при понижении до которой содержащийся в воздухе водяной пар достигнет насыщения.
f - Относительная влажность воздуха - влажноcть воздуха, измеренная на высоте 2 м над землей.
Te - Эффективная температура - температура, которую ощущает одетый по сезону человек в тени. Характеристика душности погоды. При расчете учитывается влияние влажности воздуха и скорости ветра на теплоощущения человека.
Tes - Эффективная температура на солнце - температура, которую ощущает человек, с поправкой на солнечный нагрев. Характеристика знойности погоды. Зависит от высоты солнца над горизонтом, облачности и скорости ветра. Ночью, в пасмурную погоду, а также при ветре 12 м/с и более поправка равна нулю.
P - Атмосферное давление - приведенное к уровню моря атмосферное давление.
Po - Атмосферное давление - измеренное на уровне метеостанции атмосферное давление.
Tmin - Минимальная температура - минимум температуры воздуха на высоте 2 м над землей.
Tmax - Максимальная температура - максимум температуры воздуха на высоте 2 м над землей.
R - Количество осадков - Количество выпавших осадков за период времени, мм. При наведении курсора мыши на число - период времени, за который выпало указанное количество осадков.
R24 - Количество осадков - Количество выпавших осадков за 24 часа, мм.
S - Снежный покров - Высота снежного покрова, см. При наведении курсора мыши на число - состояние снежного покрова и степень покрытия местности в баллах.